カタログに戻る

SL-8 R/B

運用中LEO
NORAD 5555·ROCKET BODY·🇷🇺 Russia

打ち上げ Oct 13, 1971 から Plesetsk Cosmodrome

Loading…

次のパス (今後24時間)

TLE

最新Source: Space-Track

元期: Sep 14, 2026, 01:12 UTC

1 05555U 71086J   26257.05005221 -.00000098  00000-0 -72412-3 0  9997
2 05555  74.0150 263.9215 0075824 203.7056 185.4492 12.27030029459812

AllMySatでSL-8 R/Bをリアルタイム追跡

Download on the App Store